Hourly Weather Barnowo

Today, 18 April, Sunday

Time Temperature Precipitation Wind Pressure Humidity
00:00 +5°C° 0 mm 2 mps 755 mmHg 88%
01:00 +5°C° 0 mm 2 mps 755 mmHg 87%
02:00 +5°C° 0 mm 2 mps 755 mmHg 88%
03:00 +5°C° 0 mm 2 mps 755 mmHg 89%
04:00 +5°C° 0 mm 2 mps 755 mmHg 90%
05:00 +6°C° 0 mm 2 mps 755 mmHg 86%
06:00 +7°C° 0 mm 2 mps 755 mmHg 82%
07:00 +8°C° 0 mm 2 mps 755 mmHg 77%
08:00 +10°C° 0 mm 2 mps 755 mmHg 70%
09:00 +12°C° 0 mm 3 mps 755 mmHg 64%
10:00 +13°C° 0 mm 4 mps 755 mmHg 57%
11:00 +13°C° 0 mm 4 mps 755 mmHg 57%
12:00 +13°C° 0 mm 4 mps 755 mmHg 57%
13:00 +13°C° 0 mm 4 mps 755 mmHg 56%
14:00 +12°C° 0.2 mm 4 mps 755 mmHg 61%
15:00 +12°C° 0.2 mm 4 mps 755 mmHg 66%
16:00 +12°C° 0.2 mm 4 mps 755 mmHg 70%
17:00 +11°C° 0.5 mm 3 mps 755 mmHg 77%
18:00 +10°C° 0.5 mm 2 mps 755 mmHg 83%
19:00 +9°C° 0.5 mm 2 mps 756 mmHg 90%
20:00 +9°C° 0 mm 2 mps 756 mmHg 90%
21:00 +8°C° 0 mm 2 mps 756 mmHg 91%
22:00 +8°C° 0 mm 2 mps 756 mmHg 91%
23:00 +8°C° 0 mm 1 mps 756 mmHg 92%

Tomorrow, 19 April, Monday

Time Temperature Precipitation Wind Pressure Humidity
00:00 +8°C° 0 mm 1 mps 755 mmHg 92%
01:00 +7°C° 0 mm 1 mps 755 mmHg 93%
02:00 +7°C° 0 mm 1 mps 755 mmHg 93%
03:00 +7°C° 0 mm 1 mps 755 mmHg 93%
04:00 +7°C° 0 mm 1 mps 755 mmHg 93%
05:00 +8°C° 0 mm 1 mps 755 mmHg 89%
06:00 +9°C° 0 mm 1 mps 755 mmHg 86%
07:00 +9°C° 0 mm 2 mps 755 mmHg 82%
08:00 +12°C° 0 mm 2 mps 755 mmHg 74%
09:00 +13°C° 0 mm 3 mps 755 mmHg 66%
10:00 +15°C° 0 mm 4 mps 755 mmHg 58%
11:00 +17°C° 0 mm 4 mps 755 mmHg 52%
12:00 +17°C° 0 mm 4 mps 754 mmHg 46%
13:00 +17°C° 0 mm 5 mps 754 mmHg 40%
14:00 +16°C° 0 mm 5 mps 754 mmHg 42%
15:00 +16°C° 0 mm 5 mps 754 mmHg 45%
16:00 +15°C° 0 mm 5 mps 754 mmHg 47%
17:00 +14°C° 0.1 mm 5 mps 754 mmHg 54%
18:00 +12°C° 0.1 mm 4 mps 754 mmHg 61%
19:00 +10°C° 0.1 mm 3 mps 754 mmHg 68%
20:00 +10°C° 0 mm 3 mps 754 mmHg 69%
21:00 +9°C° 0 mm 3 mps 754 mmHg 71%
22:00 +9°C° 0 mm 2 mps 754 mmHg 72%
23:00 +9°C° 0 mm 2 mps 754 mmHg 73%

Day after tomorrow, 20 April, Tuesday

Time Temperature Precipitation Wind Pressure Humidity
00:00 +8°C° 0 mm 2 mps 754 mmHg 74%
01:00 +8°C° 0 mm 2 mps 754 mmHg 76%
02:00 +8°C° 0 mm 2 mps 754 mmHg 78%
03:00 +8°C° 0 mm 2 mps 754 mmHg 80%
04:00 +7°C° 0 mm 2 mps 753 mmHg 82%
05:00 +8°C° 0 mm 2 mps 753 mmHg 77%
06:00 +9°C° 0 mm 2 mps 754 mmHg 73%
07:00 +9°C° 0 mm 3 mps 754 mmHg 68%
08:00 +11°C° 0 mm 3 mps 753 mmHg 60%
09:00 +12°C° 0 mm 3 mps 753 mmHg 51%
10:00 +13°C° 0 mm 3 mps 753 mmHg 43%
11:00 +13°C° 0 mm 3 mps 753 mmHg 44%
12:00 +14°C° 0 mm 2 mps 753 mmHg 44%
13:00 +14°C° 0 mm 2 mps 752 mmHg 45%
14:00 +14°C° 0 mm 2 mps 752 mmHg 46%
15:00 +13°C° 0 mm 2 mps 752 mmHg 48%
16:00 +13°C° 0 mm 2 mps 751 mmHg 50%
17:00 +12°C° 0 mm 2 mps 751 mmHg 57%
18:00 +10°C° 0 mm 2 mps 751 mmHg 64%
19:00 +9°C° 0 mm 2 mps 751 mmHg 71%
20:00 +9°C° 0 mm 1 mps 751 mmHg 74%
21:00 +8°C° 0 mm 1 mps 751 mmHg 77%
22:00 +7°C° 0 mm 1 mps 751 mmHg 80%
23:00 +7°C° 0 mm 1 mps 751 mmHg 81%

21 April, Wednesday

Time Temperature Precipitation Wind Pressure Humidity
00:00 +7°C° 0 mm 1 mps 750 mmHg 81%
01:00 +6°C° 0 mm 1 mps 750 mmHg 82%
02:00 +6°C° 0 mm 1 mps 750 mmHg 83%
03:00 +6°C° 0 mm 1 mps 750 mmHg 84%
04:00 +5°C° 0 mm 1 mps 749 mmHg 85%
05:00 +6°C° 0 mm 1 mps 749 mmHg 79%
06:00 +8°C° 0 mm 1 mps 749 mmHg 74%
07:00 +9°C° 0 mm 1 mps 749 mmHg 68%
08:00 +9°C° 0 mm 2 mps 749 mmHg 61%
09:00 +12°C° 0 mm 2 mps 748 mmHg 54%
10:00 +13°C° 0 mm 3 mps 748 mmHg 47%
11:00 +13°C° 0 mm 4 mps 748 mmHg 47%
12:00 +13°C° 0 mm 4 mps 747 mmHg 46%
13:00 +13°C° 0 mm 5 mps 747 mmHg 46%
14:00 +10°C° 0 mm 5 mps 747 mmHg 54%
15:00 +9°C° 0 mm 6 mps 747 mmHg 62%
16:00 +8°C° 0 mm 7 mps 747 mmHg 70%
17:00 +7°C° 0.1 mm 6 mps 747 mmHg 68%
18:00 +6°C° 0.1 mm 5 mps 747 mmHg 66%
19:00 +5°C° 0.1 mm 5 mps 747 mmHg 65%
20:00 +3°C° 0 mm 5 mps 747 mmHg 65%
21:00 +3°C° 0 mm 5 mps 747 mmHg 66%
22:00 +2°C° 0 mm 5 mps 746 mmHg 66%
23:00 +2°C° 0 mm 5 mps 746 mmHg 69%

22 April, Thursday

Time Temperature Precipitation Wind Pressure Humidity
00:00 +2°C° 0 mm 5 mps 746 mmHg 72%
01:00 +1°C° 0 mm 6 mps 746 mmHg 74%
02:00 +1°C° 0.2 mm 6 mps 745 mmHg 79%
03:00 +1°C° 0.2 mm 6 mps 745 mmHg 85%
04:00 -1°C° 0.2 mm 7 mps 745 mmHg 90%
05:00 0°C° 0.7 mm 7 mps 745 mmHg 92%
06:00 +1°C° 0.7 mm 6 mps 745 mmHg 93%
07:00 +1°C° 0.7 mm 6 mps 745 mmHg 95%
08:00 +1°C° 0.5 mm 6 mps 745 mmHg 95%
09:00 -1°C° 0.5 mm 6 mps 746 mmHg 95%
10:00 -1°C° 0.5 mm 6 mps 746 mmHg 95%
11:00 +1°C° 0.3 mm 6 mps 747 mmHg 94%
12:00 0°C° 0.3 mm 7 mps 747 mmHg 92%
13:00 0°C° 0.3 mm 7 mps 748 mmHg 91%
14:00 0°C° 0.3 mm 7 mps 749 mmHg 93%
15:00 0°C° 0.3 mm 7 mps 749 mmHg 94%
16:00 +1°C° 0.3 mm 6 mps 750 mmHg 95%
17:00 +1°C° 0.3 mm 6 mps 750 mmHg 95%
18:00 -1°C° 0.3 mm 6 mps 751 mmHg 95%
19:00 0°C° 0.3 mm 5 mps 752 mmHg 95%
20:00 0°C° 0 mm 5 mps 752 mmHg 91%
21:00 0°C° 0 mm 5 mps 752 mmHg 88%
22:00 0°C° 0 mm 4 mps 753 mmHg 84%
23:00 0°C° 0.1 mm 4 mps 753 mmHg 85%

23 April, Friday

Time Temperature Precipitation Wind Pressure Humidity
00:00 0°C° 0.1 mm 4 mps 753 mmHg 86%
01:00 +1°C° 0.1 mm 3 mps 754 mmHg 87%
02:00 0°C° 0.1 mm 3 mps 754 mmHg 87%
03:00 0°C° 0.1 mm 3 mps 754 mmHg 87%
04:00 0°C° 0.1 mm 3 mps 754 mmHg 87%
05:00 +1°C° 0 mm 3 mps 755 mmHg 84%
06:00 +2°C° 0 mm 3 mps 755 mmHg 80%
07:00 +3°C° 0 mm 4 mps 755 mmHg 77%
08:00 +4°C° 0.1 mm 4 mps 756 mmHg 70%
09:00 +5°C° 0.1 mm 5 mps 756 mmHg 63%
10:00 +6°C° 0.1 mm 5 mps 757 mmHg 57%
11:00 +6°C° 0 mm 5 mps 757 mmHg 52%
12:00 +7°C° 0 mm 5 mps 757 mmHg 47%
13:00 +7°C° 0 mm 5 mps 757 mmHg 42%
14:00 +7°C° 0 mm 5 mps 758 mmHg 42%
15:00 +7°C° 0 mm 5 mps 758 mmHg 41%
16:00 +6°C° 0 mm 4 mps 758 mmHg 40%
17:00 +5°C° 0 mm 4 mps 758 mmHg 46%
18:00 +4°C° 0 mm 3 mps 758 mmHg 53%
19:00 +4°C° 0 mm 2 mps 758 mmHg 59%
20:00 +3°C° 0 mm 2 mps 757 mmHg 60%
21:00 +3°C° 0 mm 2 mps 757 mmHg 61%
22:00 +2°C° 0 mm 2 mps 757 mmHg 62%
23:00 +2°C° 0 mm 2 mps 757 mmHg 61%
Show more